Flag for U.S.A. Weather past 2 weeks in Columbus, Georgia, U.S.A.

Now
80 °F

Partly sunny.


Feels Like: 82 °F
Forecast: 68 / 81 °F
Wind: 9 mph from Southeast

Location: Columbus Metropolitan Airport

Current Time: May 28, 2015 at 12:33:16 PM

Latest Report: May 28, 2015 at 11:51 AM


Visibility: 10 mi

Pressure: 30.18 "Hg

Humidity: 64%

Dew point: 67 °F

Location of ColumbusLocation

Historic Weather in Columbus — Graph

°F

Columbus temperature yesterday

Maximum temperature yesterday: 83 °F (at 2:51 PM)
Minimum temperature yesterday: 66 °F (at 1:51 AM)
Average temperature yesterday: 74 °F

Past Weeks' High & Low Weather Summary

 TemperatureHumidityPressure
High90 °F (May 20, 4:51 PM)97% (May 15, 2:51 AM)30.34 "Hg (May 15, 2:51 AM)
Low56 °F (May 22, 6:51 AM)20% (May 13, 6:51 PM)29.89 "Hg (May 20, 6:51 PM)
Average75 °F68%30.14 "Hg
* Reported May 13 10:51 AM — May 28 10:51 AM, Columbus, Weather by CustomWeather, © 2015

Note: Actual official high and low records may vary slightly from our data, if they occured in-between our weather recording intervals... More about our weather records

Advertising

Columbus weather history for previous 24 hours

 ConditionsComfort  
Time TempWeatherWind HumidityBarometerVisibility
10:51 AM
Thu, May 28
79 °FSunny.6 mph67%30.17 "Hg10 mi
9:51 AM76 °FPassing clouds.9 mph74%30.19 "Hg10 mi
8:51 AM71 °FScattered clouds.6 mph87%30.18 "Hg10 mi
7:51 AM69 °FSunny.7 mph90%30.16 "Hg10 mi
6:51 AM68 °FClear.8 mph90%30.14 "Hg10 mi
5:51 AM67 °FClear.5 mph93%30.13 "Hg10 mi
4:51 AM67 °FClear.6 mph93%30.12 "Hg10 mi
3:59 AM68 °FPassing clouds.6 mph94%30.13 "Hg10 mi
2:51 AM70 °FClear.6 mph87%30.14 "Hg10 mi
1:51 AM71 °FClear.No wind84%30.16 "Hg10 mi
12:51 AM72 °FClear.6 mph81%30.17 "Hg10 mi
11:51 PM
Wed, May 27
74 °FClear.7 mph76%30.18 "Hg10 mi
10:51 PM74 °FPartly cloudy.5 mph76%30.19 "Hg10 mi
9:51 PM75 °FPassing clouds.No wind74%30.17 "Hg10 mi
8:51 PM77 °FBroken clouds.9 mph71%30.13 "Hg10 mi
7:51 PM79 °FScattered clouds.No wind79%30.12 "Hg10 mi
6:51 PM80 °FSunny.6 mph76%30.11 "Hg10 mi
5:51 PM83 °FBroken clouds.7 mph59%30.11 "Hg10 mi
4:51 PM83 °FPassing clouds.No wind57%30.13 "Hg10 mi
3:51 PM82 °FBroken clouds.7 mph60%30.14 "Hg10 mi
2:51 PM83 °FBroken clouds.7 mph61%30.15 "Hg10 mi
1:51 PM81 °FBroken clouds.7 mph65%30.19 "Hg10 mi
12:51 PM80 °FPartly sunny.No wind67%30.22 "Hg10 mi
Weather by CustomWeather, © 2015

See weather overviewHow to use our weather pages